Location: Walnut Point State Park
(39.6958°N, 88.0345°W)
Time: 00:29:10
(UTC-05:00)

Cosmos 1833 Rocket - Visible Passes

Search period start: 29 August 2016 00:00
Search period end: 08 September 2016 00:00
Orbit: 833 x 839 km, 71.0° (Epoch: 27 August)

Date Brightness Start Highest point End Pass type
(mag) Time Alt. Az. Time Alt. Az. Time Alt. Az.
30 Aug 3.1 05:49:36 10° S 05:55:09 68° ESE 06:00:44 10° NNE visible
31 Aug 3.2 05:32:59 10° S 05:38:30 62° ESE 05:44:02 10° NNE visible
01 Sep 3.4 05:16:23 10° S 05:21:50 56° ESE 05:27:20 10° NNE visible
02 Sep 3.5 04:59:47 10° S 05:05:11 52° ESE 05:10:37 10° NNE visible
03 Sep 3.6 04:43:13 10° S 04:48:32 47° ESE 04:53:54 10° NE visible
04 Sep 3.7 04:27:14 13° S 04:31:53 43° ESE 04:37:10 10° NE visible
05 Sep 3.8 04:11:47 19° SSE 04:15:15 39° ESE 04:20:26 10° NE visible
05 Sep 3.7 05:54:25 10° WSW 05:59:14 29° WNW 06:04:05 10° N visible
06 Sep 3.9 03:56:13 25° SSE 03:58:36 36° ESE 04:03:41 10° NE visible
06 Sep 3.6 05:37:57 12° WSW 05:42:32 31° WNW 05:47:30 10° N visible
07 Sep 4.0 03:40:35 29° SE 03:41:58 33° ESE 03:46:56 10° NE visible
07 Sep 3.5 05:22:19 18° WSW 05:25:49 34° WNW 05:30:54 10° N visible
